Location: Banksville Park
(38.5557°N, 75.1182°W)
Time: 03:38:48
(UTC+00:00)

Envisat - Pass Details

Date: 25 November 2020
Orbit: 764 x 766 km, 98.1° (Epoch: 16 January)

Event Time Altitude Azimuth Distance (km) Brightness Sun altitude
Rises 10:43:29 0° 15° (NNE) 3,240 6.2 -13.6°
Reaches altitude 10° 10:45:49 10° 18° (NNE) 2,310 5.5 -13.2°
Maximum altitude 10:50:53 69° 101° (ESE) 821 3.4 -12.2°
Drops below altitude 10° 10:55:55 10° 185° (S) 2,293 5.6 -11.3°
Sets 10:58:14 0° 188° (S) 3,215 6.4 -10.9°
